Wind_Speed
76 75 74 72 70 66 64 64 59 54 52 50 49 46 44 44 43 43 43 39 42 48 41 34 35 35 34 35 36 36 34 33 31 30 29 28 28 29 28 28 28 27 27 27 28 29 29 29 30 30 31 31 31 31 31 32 32 33 34 35 36 36 36
80 79 79 77 74 71 68 66 61 59 59 54 52 50 48 47 43 43 45 43 45 48 39 35 38 39 38 39 39 38 36 34 34 33 31 30 31 31 30 30 30 29 29 29 30 30 31 31 32 32 32 32 32 33 33 34 34 35 36 36 37 37 37
84 84 85 81 77 74 71 69 66 65 63 58 56 55 51 47 44 43 46 46 47 48 41 38 41 41 41 41 41 40 38 37 37 35 34 34 34 33 33 33 32 31 31 31 32 32 33 34 34 34 34 34 34 35 35 36 36 37 38 38 39 39 39
88 87 87 83 78 76 74 72 70 68 66 62 61 58 53 50 48 46 47 47 48 51 47 43 44 44 44 43 43 42 40 39 38 38 37 37 37 36 36 35 34 33 33 34 34 35 35 36 36 36 36 36 36 37 37 38 38 39 39 40 40 40 40
91 88 86 83 79 79 77 74 73 71 69 67 65 60 55 54 51 48 49 48 50 55 53 48 47 46 45 44 44 43 41 40 40 40 41 40 40 39 37 37 36 35 36 36 37 37 38 38 38 38 38 38 38 38 39 40 40 41 42 42 42 42 42
91 88 85 84 83 83 81 78 77 75 72 71 68 62 58 56 52 48 48 49 52 57 56 51 49 47 47 46 45 44 43 43 43 43 43 43 42 41 39 38 38 37 38 38 39 39 40 40 40 40 40 40 40 40 41 42 42 43 44 43 43 44 43
92 90 88 88 89 88 86 83 81 80 77 75 71 64 60 59 54 51 51 51 53 57 57 55 53 51 50 49 47 47 46 46 46 45 45 45 44 43 41 40 39 39 40 40 40 41 41 42 42 42 42 42 42 43 43 44 44 45 45 45 45 45 45
94 94 94 92 92 91 90 86 83 82 79 76 72 67 65 63 58 56 55 51 52 58 60 59 58 56 54 52 50 50 48 48 48 47 47 47 46 45 44 42 42 42 42 42 42 42 42 43 44 44 44 45 45 45 45 46 46 47 46 46 46 46 46
96 98 97 93 92 92 90 86 83 81 79 76 74 71 70 67 62 60 57 51 53 60 62 62 62 59 57 55 53 52 50 49 50 50 49 48 47 47 46 44 43 44 44 44 44 44 44 44 45 45 45 46 47 47 48 48 49 49 48 48 48 48 47
96 97 96 93 92 91 89 86 84 82 81 79 77 76 74 69 63 62 58 53 56 60 61 64 66 63 61 59 56 54 53 51 51 52 51 50 49 48 47 46 46 46 46 46 46 46 46 46 46 47 47 47 48 49 50 51 51 51 50 50 50 50 49
92 95 95 95 95 94 93 91 89 86 85 83 81 81 78 71 67 66 60 56 58 58 59 64 67 66 64 63 61 58 56 54 53 53 53 52 51 50 49 49 49 50 49 48 48 48 48 48 48 48 49 49 50 50 51 52 53 53 52 52 52 52 51
88 92 95 97 98 98 96 95 93 91 90 88 86 84 80 74 72 68 63 60 59 58 58 63 67 69 67 66 65 62 59 57 55 54 54 54 54 53 52 52 52 53 52 50 50 51 51 51 50 50 50 51 52 52 53 54 54 54 54 54 54 53 53
85 89 93 97 99 100 99 98 96 94 93 91 90 87 82 79 76 70 66 65 62 60 61 64 67 70 69 69 68 65 62 60 58 56 55 55 56 56 55 55 55 54 53 52 53 53 53 53 52 51 52 53 54 54 55 56 56 56 56 56 55 55 55
83 86 90 94 98 100 101 100 98 97 95 94 91 88 85 83 80 74 71 70 66 63 65 67 69 72 71 70 69 66 64 62 60 58 58 57 57 57 58 58 57 56 55 54 55 56 56 54 53 53 54 55 56 57 57 58 58 59 59 58 58 57 57
80 83 86 90 95 99 101 101 100 99 97 96 93 90 86 84 81 77 75 72 68 66 67 70 72 74 73 71 69 67 66 65 62 61 60 60 59 58 59 59 58 58 57 56 57 58 58 56 55 55 56 58 59 59 60 60 60 61 61 61 60 60 60
77 81 85 89 92 97 101 102 101 100 99 97 94 90 87 84 81 79 77 73 69 67 69 71 73 74 73 72 70 69 68 66 65 64 63 62 61 60 61 60 59 59 58 58 59 61 59 57 57 58 59 61 62 62 62 62 62 63 63 62 62 62 62
75 78 83 87 90 95 98 100 99 98 97 96 93 90 88 85 83 81 77 73 72 71 71 73 74 73 72 72 71 71 70 68 67 66 64 63 63 63 63 62 61 60 60 60 61 62 61 60 60 61 62 64 65 65 65 65 64 64 64 64 64 64 64
75 78 81 84 88 90 92 93 94 96 96 95 95 93 90 89 86 82 78 76 76 75 74 74 74 72 71 72 72 72 71 69 68 67 66 65 65 65 64 63 63 62 61 62 63 63 63 62 62 64 65 66 67 67 68 67 67 67 66 66 66 66 66
74 77 79 82 84 84 85 87 90 94 97 98 98 96 94 92 89 84 81 79 78 77 76 75 75 74 74 74 75 74 71 69 68 68 68 67 67 66 65 65 65 64 63 64 64 64 64 64 65 66 67 68 69 69 70 70 70 69 69 69 69 69 68
74 74 75 78 79 79 81 84 88 93 97 98 98 97 95 92 90 86 84 82 80 78 78 78 77 76 77 77 77 75 72 70 70 70 70 69 68 68 68 68 67 66 65 65 65 65 66 66 67 68 68 69 70 71 71 71 71 71 71 72 72 71 71
72 72 68 69 73 76 79 82 86 91 95 97 98 97 95 92 91 89 86 84 81 80 79 79 79 79 80 80 79 76 73 72 73 73 73 72 71 70 70 70 69 68 67 67 66 67 68 68 69 69 70 70 71 72 72 73 72 72 73 74 73 73 72
70 70 64 60 65 71 76 80 84 88 92 96 97 96 94 93 92 90 87 85 83 82 82 81 81 81 82 82 80 78 76 76 76 76 75 74 73 73 73 73 71 69 69 69 69 70 70 70 70 71 71 72 73 73 74 73 73 73 75 75 74 74 73
69 70 66 60 60 66 72 77 82 86 89 92 95 95 93 92 91 90 88 86 84 84 84 83 83 83 84 83 82 80 79 79 79 79 78 76 75 75 75 74 72 71 71 71 71 72 72 72 72 73 73 74 74 74 74 73 73 74 75 75 74 74 73
67 69 68 63 60 63 68 73 77 83 87 89 92 93 90 88 89 89 87 86 86 86 86 85 85 85 85 85 84 82 83 83 82 81 79 77 76 75 75 74 73 72 73 73 73 74 74 75 75 75 75 75 75 75 74 73 74 75 75 75 74 74 73
65 68 68 66 63 62 65 71 76 81 85 88 89 88 86 85 87 89 88 87 87 87 87 88 87 86 87 86 85 85 85 85 83 82 80 77 75 76 76 75 75 74 75 75 75 75 76 77 77 76 76 76 75 75 74 73 74 75 75 75 74 74 73
63 66 67 67 64 59 60 69 76 78 81 83 83 81 81 83 86 88 88 88 88 88 89 90 89 88 87 86 85 85 86 85 84 82 80 78 77 78 77 77 76 76 75 76 76 77 77 78 77 76 76 76 76 75 74 74 75 76 76 75 74 73 73
59 64 66 66 63 60 59 64 69 73 76 77 77 77 79 82 85 87 88 88 89 89 90 91 90 88 87 85 84 85 86 85 84 82 80 79 79 79 78 78 77 77 76 76 77 77 78 78 77 76 76 77 76 75 75 76 76 76 76 75 74 73 73
58 61 64 62 60 62 64 63 64 67 70 72 74 76 78 79 82 85 85 86 88 89 89 90 89 88 86 84 83 84 85 84 83 82 81 80 80 79 79 78 78 77 77 77 77 77 77 77 77 76 77 77 77 76 76 77 76 75 75 75 74 73 73
57 58 60 59 58 61 64 64 64 64 65 67 71 74 76 77 79 81 83 85 87 87 88 88 87 86 84 83 84 84 84 83 82 81 81 80 79 79 78 78 78 78 78 78 78 77 77 77 76 76 76 76 77 77 77 76 75 75 74 74 73 73 73
55 56 57 56 56 58 60 62 62 62 62 63 66 69 73 74 76 78 80 82 84 85 86 86 85 84 83 83 84 84 83 82 82 81 80 79 78 77 78 78 78 78 78 78 77 77 76 76 76 75 74 75 76 77 76 76 75 75 74 74 74 75 75
51 52 54 55 55 56 58 59 59 59 60 61 63 65 68 70 72 74 76 78 81 83 84 84 84 83 83 83 83 83 82 82 81 80 78 77 77 77 77 77 77 76 76 76 75 75 74 74 73 73 74 76 77 77 77 76 76 75 76 76 76 76 76
50 49 52 54 53 54 55 56 55 56 57 58 60 62 64 66 68 70 71 74 77 80 82 83 82 82 82 82 81 81 81 81 80 79 78 76 76 76 76 76 76 74 73 73 73 73 73 73 72 73 75 77 77 77 77 76 76 76 76 76 76 75 76
50 48 50 52 52 53 53 51 47 47 50 53 56 58 60 63 64 66 68 70 73 77 80 81 81 80 80 80 80 80 80 80 79 78 77 76 77 77 76 76 75 74 73 73 73 73 73 73 73 74 75 76 77 77 77 76 76 76 76 77 77 78 78
49 47 49 51 52 52 50 43 35 34 37 42 47 52 56 59 61 62 63 65 70 74 76 77 79 79 79 80 79 78 78 79 78 77 77 76 76 77 77 76 76 75 75 74 74 73 73 73 73 74 75 76 77 77 77 77 77 77 78 79 79 80 80
48 48 51 52 53 53 47 38 33 32 32 33 36 41 45 49 54 58 60 61 65 70 73 74 76 78 78 79 78 77 77 77 77 76 76 76 76 77 77 76 76 76 76 75 75 74 74 74 74 75 75 75 76 78 78 78 78 79 80 80 80 80 80
49 51 53 54 54 53 48 42 36 33 30 28 29 32 35 37 42 48 54 57 61 65 68 71 73 75 76 77 77 77 76 75 75 75 75 75 75 75 76 76 76 76 76 75 74 74 74 74 73 72 73 75 77 79 80 80 80 81 81 81 81 81 80
51 52 54 56 55 54 52 48 41 33 28 27 27 29 32 33 34 37 43 48 53 56 60 64 68 71 72 74 75 75 75 74 74 74 74 74 74 75 75 75 75 75 75 74 73 73 72 72 71 72 73 75 77 78 79 80 81 82 81 80 80 79 79
Wind_Direction
237 239 239 237 236 235 237 240 242 243 242 239 239 239 236 236 235 235 238 236 238 244 244 239 239 240 240 242 245 249 251 254 256 256 258 259 259 260 261 262 264 267 269 270 272 274 276 278 280 283 286 288 290 292 294 296 297 299 301 303 305 307 309
234 237 238 237 236 235 235 238 238 238 238 237 237 239 237 239 239 237 238 238 240 246 246 240 240 240 240 242 244 248 250 252 254 255 257 258 257 259 260 261 264 266 269 271 273 275 277 278 280 282 284 287 289 292 293 295 297 298 300 302 304 307 308
233 234 237 236 236 236 236 238 238 238 239 238 238 239 237 238 238 237 238 239 242 247 246 241 242 242 242 243 244 246 247 250 253 255 255 256 257 259 260 262 265 266 269 271 272 274 276 277 279 280 283 286 288 290 293 294 296 297 299 302 304 306 307
232 233 236 237 237 237 236 237 239 240 241 240 239 239 238 237 235 234 236 239 243 247 245 241 242 243 243 244 244 245 246 248 251 253 254 255 257 258 260 262 264 266 269 270 272 273 275 277 278 280 282 284 286 289 291 293 295 297 299 301 303 304 305
232 232 235 237 238 238 237 237 238 239 240 241 241 240 239 239 237 236 236 238 241 245 245 243 244 245 246 247 247 247 248 248 249 251 253 254 255 257 258 260 262 265 268 270 272 274 275 276 278 279 281 283 286 288 290 292 294 296 298 300 301 302 302
232 232 233 235 236 237 237 236 236 237 238 239 239 238 238 239 237 235 234 234 237 244 248 247 248 249 250 250 251 250 250 249 250 251 252 253 254 255 257 258 260 263 265 268 270 272 274 276 278 280 282 284 286 288 290 292 294 295 297 298 299 300 300
230 231 231 232 234 235 235 234 234 235 236 237 237 236 236 236 234 232 230 229 232 241 248 249 249 249 249 250 251 250 250 250 250 251 253 254 255 256 258 259 260 261 263 265 267 270 273 275 278 280 282 284 286 287 289 291 292 293 294 295 296 297 298
229 230 230 230 232 233 234 234 234 234 236 237 238 237 235 235 233 231 231 230 230 235 241 246 249 249 248 249 250 250 250 250 251 252 253 255 256 258 259 260 261 262 263 265 267 269 271 274 276 279 281 284 285 287 288 289 290 291 292 293 294 295 296
229 230 230 230 232 234 235 235 235 235 236 237 238 237 236 235 234 234 233 231 230 232 236 242 247 250 251 251 251 251 251 251 252 253 254 255 256 258 260 261 262 263 264 265 267 268 270 273 275 278 280 283 285 286 287 288 289 290 291 292 293 294 295
229 230 231 231 232 234 235 235 235 235 236 236 236 236 236 235 235 235 235 232 231 232 235 239 244 248 251 252 252 251 252 252 253 254 256 256 257 259 261 262 262 263 264 265 267 269 271 273 276 278 280 282 284 285 286 287 288 289 291 292 292 293 295
230 230 230 231 231 232 233 233 233 233 234 234 234 235 235 234 233 233 233 231 230 232 235 238 241 244 247 249 251 251 252 252 253 255 256 258 259 260 261 262 263 264 265 267 268 270 272 274 276 279 281 282 283 284 285 285 286 288 289 290 291 292 294
230 230 229 229 230 231 231 232 232 232 232 232 232 233 233 233 232 232 231 230 228 230 232 235 239 242 243 245 248 249 250 251 252 254 256 258 260 261 262 263 264 265 267 269 270 272 273 275 277 279 280 281 282 282 283 283 284 285 286 287 289 291 292
230 229 229 229 229 230 230 231 232 232 232 232 232 231 231 231 231 230 229 228 226 226 227 230 235 240 241 243 245 247 249 250 251 252 254 256 258 260 261 263 264 266 268 270 271 272 273 274 276 278 278 279 280 281 281 282 283 284 285 286 288 289 290
231 230 230 229 229 230 230 230 231 232 233 233 233 232 231 230 230 228 227 227 226 224 225 228 232 237 239 241 244 246 248 249 250 252 253 254 256 258 260 261 263 265 267 269 270 271 272 273 275 276 277 278 278 279 280 281 282 283 284 285 287 288 289
232 231 231 230 229 230 230 230 231 232 233 233 234 233 232 232 231 229 228 228 227 226 226 228 231 235 238 241 243 245 247 249 250 251 252 253 255 256 258 260 262 264 266 267 268 269 271 272 274 275 276 277 277 278 279 280 281 282 283 285 286 288 289
233 232 231 230 230 230 230 230 230 231 232 233 234 235 234 234 234 233 231 229 228 228 228 230 232 234 237 240 242 244 246 248 250 251 252 253 254 255 257 258 260 262 264 265 267 269 270 272 273 274 275 276 276 277 278 279 280 281 283 284 286 287 289
234 232 231 230 230 230 230 230 230 231 232 234 235 236 236 236 235 235 233 232 230 228 228 231 233 235 237 240 242 244 245 247 249 251 252 253 254 255 256 258 260 261 263 264 266 268 270 271 272 273 274 274 275 276 277 278 279 281 282 284 285 287 288
236 234 233 231 230 230 230 230 231 231 232 233 234 234 235 235 235 235 234 233 232 230 229 231 234 236 237 239 241 243 244 246 248 250 251 253 254 255 256 258 259 260 262 263 265 267 269 270 271 272 273 274 275 277 278 279 280 281 282 284 285 286 287
238 236 235 234 232 231 231 230 230 231 231 231 232 233 233 234 234 234 233 233 234 233 231 231 233 235 236 238 240 242 243 245 247 249 250 252 253 255 256 257 258 260 261 262 264 266 268 269 270 271 273 275 276 277 279 280 281 282 283 284 285 286 288
239 238 237 236 234 232 231 230 229 230 230 230 231 231 232 233 234 234 234 233 233 234 234 233 233 234 235 237 239 240 241 243 245 247 249 250 252 253 255 256 257 259 260 261 263 265 267 268 270 271 273 275 276 278 279 280 282 283 285 286 287 288 289
239 239 239 239 236 233 232 231 229 230 230 230 230 230 231 232 233 233 234 233 233 233 234 235 234 234 235 237 238 239 240 242 243 245 247 248 250 252 253 255 256 258 259 261 263 264 265 267 269 270 272 274 275 277 278 279 281 283 285 286 288 289 291
239 237 237 238 237 234 233 231 230 230 231 230 230 229 229 230 232 233 233 233 233 233 233 234 235 235 235 237 238 239 239 240 242 243 245 246 248 250 252 254 255 257 259 260 262 263 265 266 268 269 271 272 274 275 277 279 281 283 284 286 288 289 291
239 237 234 235 235 234 234 233 231 230 230 231 230 229 228 228 231 232 232 233 234 234 233 234 235 235 236 238 239 239 239 240 241 242 243 244 246 249 251 253 254 256 258 260 261 263 264 266 267 268 270 271 272 274 277 279 281 282 283 285 287 288 290
239 238 234 233 232 232 232 233 232 231 230 230 230 229 227 228 230 231 232 232 233 234 234 234 234 235 237 238 239 239 240 240 241 242 243 244 246 248 250 252 254 256 257 259 261 262 264 265 266 268 269 271 272 274 276 278 280 281 283 284 286 287 289
238 239 236 232 231 232 232 232 232 232 231 231 230 229 227 227 229 230 230 231 232 233 234 234 234 235 236 238 239 240 241 242 243 244 245 246 247 248 250 252 253 255 257 259 260 262 264 265 266 268 269 271 273 274 276 278 279 280 282 283 285 286 287
238 239 237 233 230 232 233 233 233 233 232 232 231 230 228 227 228 229 229 230 231 233 234 234 235 235 236 238 239 241 243 244 245 246 247 248 248 249 250 252 253 255 256 258 260 262 263 265 267 268 270 272 273 274 276 277 278 279 281 282 283 285 286
236 237 238 235 231 230 232 233 233 234 233 233 232 231 229 227 227 228 228 229 230 232 233 235 235 236 237 238 239 242 244 245 247 248 249 249 250 251 252 253 254 256 257 259 260 262 264 266 267 269 271 272 273 274 275 276 277 278 280 281 282 283 284
235 236 238 237 233 231 231 232 233 234 233 232 232 231 230 228 227 227 228 229 230 232 233 235 236 237 238 238 239 241 243 245 247 248 249 250 251 252 254 255 256 257 258 259 261 262 264 266 268 270 271 273 273 274 275 275 276 277 279 280 281 282 283
233 234 235 235 234 233 233 232 233 233 233 232 232 231 230 229 228 228 228 229 231 232 233 235 237 237 238 239 240 242 243 245 246 248 249 251 252 253 255 256 257 258 259 260 261 263 265 267 268 270 271 272 273 273 274 275 276 277 278 279 280 281 282
231 231 231 231 232 234 234 234 234 233 233 233 233 232 231 230 229 229 229 230 231 232 234 235 236 237 238 239 240 242 243 245 246 247 249 251 252 254 255 256 258 259 260 262 263 265 266 268 269 270 270 271 272 273 274 275 276 277 278 279 280 281 282
230 228 227 228 229 232 234 235 235 234 234 233 233 233 232 231 230 230 230 231 231 233 234 235 236 237 238 239 240 242 243 245 246 248 249 251 252 254 255 257 258 260 261 263 264 266 267 268 269 269 269 270 271 273 274 275 276 277 278 279 280 282 283
229 226 224 225 226 229 232 234 235 236 236 235 234 234 233 233 232 231 231 232 232 233 234 235 236 238 239 240 241 243 244 245 246 248 249 250 252 253 255 256 258 259 261 263 264 265 266 267 267 268 270 271 273 274 274 275 276 277 279 280 281 282 283
227 224 223 222 222 225 229 232 235 239 240 238 237 236 235 234 233 233 232 233 234 234 235 236 237 238 239 240 241 243 244 245 246 248 249 250 251 252 254 256 257 258 259 261 263 264 265 267 268 269 271 272 273 273 274 275 276 277 279 280 281 282 283
223 220 220 219 219 221 224 223 225 232 239 240 239 238 237 236 235 234 234 234 235 235 236 236 237 238 239 240 241 242 244 246 247 248 249 249 251 252 254 255 257 258 259 260 262 263 265 266 267 269 270 271 271 272 273 274 276 277 278 279 281 282 284
217 214 215 215 216 217 215 206 203 214 227 234 237 238 238 237 236 235 234 233 235 237 237 237 237 238 239 240 241 242 244 246 247 248 249 250 251 253 254 255 257 258 259 260 261 263 264 266 267 268 269 269 269 271 273 275 276 277 278 279 280 282 283
213 210 211 213 213 212 205 193 190 202 217 229 236 237 237 237 236 236 235 233 235 238 239 238 238 239 239 240 241 242 243 245 247 248 249 250 252 253 254 255 257 258 259 260 262 263 264 266 267 267 266 266 269 272 274 275 275 276 277 278 280 281 282
213 209 210 211 211 209 202 192 187 191 205 219 227 230 232 232 233 236 237 235 235 238 241 241 241 241 241 242 243 243 244 246 247 248 249 251 252 253 254 255 257 258 259 260 262 263 264 265 265 264 265 267 271 273 273 274 275 276 277 279 280 282 285
Height
10884 10887 10889 10893 10898 10904 10906 10906 10913 10921 10924 10926 10929 10932 10935 10935 10938 10940 10942 10948 10945 10940 10947 10954 10954 10955 10955 10954 10954 10954 10956 10957 10958 10959 10960 10961 10962 10961 10961 10961 10961 10962 10962 10962 10962 10962 10963 10963 10963 10963 10963 10963 10963 10963 10963 10962 10961 10960 10959 10959 10958 10957 10956
10874 10875 10875 10880 10889 10895 10898 10902 10909 10911 10912 10918 10923 10925 10928 10930 10934 10937 10937 10940 10939 10937 10945 10950 10948 10950 10950 10950 10951 10951 10952 10953 10953 10955 10956 10957 10957 10958 10958 10957 10958 10958 10958 10959 10959 10959 10959 10959 10959 10959 10959 10959 10959 10959 10959 10958 10957 10957 10956 10955 10954 10953 10952
10862 10864 10863 10869 10880 10887 10893 10897 10900 10900 10904 10913 10916 10918 10923 10926 10930 10933 10932 10933 10933 10933 10940 10943 10943 10944 10945 10945 10947 10947 10948 10949 10949 10950 10951 10952 10953 10953 10954 10954 10954 10954 10955 10955 10955 10955 10955 10955 10955 10956 10955 10956 10955 10955 10955 10954 10953 10953 10952 10951 10950 10949 10948
10849 10854 10856 10864 10876 10882 10887 10890 10892 10895 10900 10906 10908 10913 10919 10921 10925 10927 10926 10928 10928 10927 10931 10935 10936 10937 10939 10940 10942 10943 10944 10945 10945 10946 10946 10947 10948 10949 10949 10950 10950 10950 10951 10951 10951 10951 10951 10951 10951 10951 10952 10952 10952 10952 10951 10950 10950 10949 10948 10947 10946 10945 10944
10838 10848 10854 10864 10871 10873 10877 10883 10886 10889 10893 10896 10900 10908 10914 10916 10920 10923 10922 10924 10923 10918 10920 10927 10929 10931 10933 10935 10937 10938 10939 10940 10941 10941 10941 10942 10943 10944 10945 10946 10946 10947 10946 10946 10946 10947 10947 10947 10947 10947 10947 10948 10947 10947 10947 10946 10945 10944 10943 10943 10942 10941 10940
10832 10842 10851 10856 10857 10858 10865 10873 10876 10880 10884 10886 10891 10901 10908 10910 10916 10920 10920 10921 10918 10911 10913 10919 10923 10925 10927 10929 10931 10933 10934 10935 10935 10935 10936 10937 10938 10939 10941 10942 10943 10943 10943 10942 10942 10942 10942 10942 10942 10942 10942 10943 10943 10943 10942 10942 10941 10940 10939 10939 10938 10937 10935
10825 10832 10839 10842 10842 10845 10851 10858 10865 10869 10872 10876 10883 10895 10901 10903 10910 10914 10914 10916 10914 10909 10909 10912 10915 10919 10921 10923 10925 10927 10928 10929 10930 10930 10930 10931 10933 10934 10936 10937 10939 10939 10939 10939 10939 10938 10938 10938 10937 10937 10937 10938 10938 10938 10938 10938 10937 10936 10935 10935 10934 10932 10931
10816 10818 10822 10826 10829 10833 10838 10848 10857 10861 10867 10873 10880 10889 10892 10894 10902 10905 10906 10913 10912 10906 10903 10904 10906 10910 10913 10916 10919 10920 10922 10923 10924 10924 10925 10926 10928 10930 10931 10933 10934 10934 10934 10934 10934 10934 10934 10934 10933 10933 10933 10933 10933 10934 10934 10933 10932 10931 10931 10930 10929 10928 10927
10803 10803 10809 10820 10826 10828 10834 10845 10853 10857 10864 10869 10873 10878 10880 10886 10895 10897 10902 10911 10909 10901 10899 10897 10898 10902 10905 10908 10912 10914 10916 10918 10918 10919 10920 10921 10923 10924 10926 10928 10929 10929 10929 10929 10929 10930 10929 10929 10930 10929 10929 10929 10929 10928 10928 10927 10926 10926 10926 10925 10924 10923 10922
10794 10798 10807 10818 10822 10824 10830 10838 10845 10850 10855 10858 10863 10866 10869 10880 10890 10891 10897 10906 10903 10898 10898 10894 10891 10895 10898 10900 10904 10907 10910 10912 10913 10913 10914 10915 10918 10919 10920 10922 10922 10922 10923 10923 10924 10924 10924 10925 10925 10925 10925 10925 10925 10924 10923 10922 10920 10920 10920 10919 10918 10917 10916
10786 10791 10798 10806 10808 10812 10818 10824 10830 10836 10840 10846 10851 10852 10859 10874 10880 10881 10890 10898 10896 10896 10899 10892 10887 10889 10892 10893 10896 10900 10902 10905 10907 10907 10908 10909 10911 10913 10914 10915 10915 10915 10916 10917 10917 10917 10918 10919 10920 10920 10920 10920 10920 10919 10918 10916 10915 10914 10914 10913 10912 10912 10911
10775 10779 10785 10790 10794 10799 10805 10809 10816 10822 10826 10832 10836 10840 10853 10864 10866 10872 10883 10887 10888 10893 10895 10890 10883 10881 10885 10887 10888 10892 10895 10898 10901 10903 10903 10904 10904 10905 10907 10907 10908 10908 10909 10910 10911 10911 10912 10913 10914 10915 10915 10915 10914 10914 10912 10911 10910 10909 10909 10908 10907 10907 10907
10764 10767 10772 10777 10782 10788 10792 10798 10805 10810 10815 10820 10824 10832 10844 10850 10854 10865 10874 10874 10879 10885 10886 10885 10879 10874 10877 10880 10881 10886 10890 10892 10895 10897 10899 10899 10899 10900 10900 10900 10901 10902 10903 10905 10905 10905 10906 10907 10909 10910 10910 10909 10908 10908 10906 10904 10904 10903 10903 10902 10902 10902 10901
10754 10757 10762 10767 10773 10777 10781 10788 10796 10800 10805 10811 10817 10826 10835 10839 10844 10856 10861 10862 10870 10875 10875 10877 10873 10867 10870 10873 10875 10881 10884 10886 10889 10891 10893 10894 10894 10895 10895 10895 10896 10897 10898 10900 10899 10899 10900 10902 10905 10905 10904 10903 10902 10901 10900 10898 10898 10897 10896 10896 10896 10896 10895
10744 10749 10753 10757 10761 10766 10771 10779 10786 10791 10796 10802 10809 10818 10827 10832 10839 10848 10851 10855 10865 10868 10866 10867 10864 10862 10865 10868 10872 10876 10877 10879 10883 10885 10887 10888 10889 10890 10889 10889 10891 10892 10893 10894 10893 10893 10894 10897 10899 10899 10898 10896 10895 10894 10893 10892 10891 10890 10890 10890 10889 10889 10888
10735 10739 10741 10745 10749 10754 10758 10765 10774 10782 10788 10795 10803 10814 10822 10829 10835 10841 10845 10852 10861 10862 10859 10858 10857 10858 10860 10864 10868 10869 10870 10873 10876 10878 10880 10881 10883 10884 10883 10884 10886 10886 10888 10889 10887 10886 10888 10891 10892 10892 10891 10889 10886 10886 10886 10886 10885 10884 10883 10883 10882 10881 10881
10725 10726 10728 10733 10738 10740 10747 10758 10769 10778 10785 10792 10800 10808 10816 10822 10827 10832 10840 10849 10853 10851 10850 10849 10850 10853 10856 10859 10862 10863 10864 10867 10869 10871 10873 10875 10876 10877 10877 10879 10880 10881 10882 10883 10882 10881 10882 10885 10885 10885 10883 10880 10879 10879 10878 10878 10878 10877 10877 10877 10875 10874 10873
10714 10716 10719 10723 10727 10732 10743 10756 10765 10772 10778 10784 10789 10796 10804 10810 10816 10824 10834 10840 10840 10840 10843 10843 10844 10847 10851 10852 10853 10854 10857 10861 10863 10865 10867 10868 10869 10870 10871 10873 10874 10875 10876 10877 10875 10875 10876 10878 10878 10877 10874 10873 10871 10871 10870 10870 10870 10869 10869 10869 10868 10867 10865
10704 10708 10711 10714 10721 10731 10741 10749 10755 10760 10765 10769 10774 10781 10789 10796 10805 10815 10824 10829 10831 10834 10837 10836 10837 10839 10841 10842 10843 10845 10850 10854 10857 10858 10859 10861 10862 10864 10865 10866 10866 10868 10870 10869 10870 10870 10870 10871 10870 10868 10867 10865 10864 10862 10862 10861 10860 10860 10860 10860 10859 10858 10857
10696 10701 10704 10707 10718 10727 10732 10737 10743 10746 10749 10754 10761 10769 10779 10788 10797 10806 10813 10819 10824 10827 10829 10829 10829 10830 10830 10831 10833 10837 10843 10847 10848 10849 10851 10853 10855 10856 10857 10857 10858 10861 10862 10862 10864 10864 10864 10863 10862 10861 10860 10858 10856 10855 10854 10852 10852 10852 10851 10850 10850 10849 10849
10689 10694 10699 10705 10712 10718 10721 10726 10731 10733 10736 10742 10750 10759 10770 10780 10787 10794 10803 10809 10814 10818 10820 10821 10822 10821 10820 10821 10825 10830 10835 10838 10839 10840 10842 10844 10846 10848 10848 10848 10850 10853 10854 10855 10856 10856 10856 10856 10855 10854 10853 10851 10849 10847 10846 10845 10845 10845 10844 10842 10842 10841 10840
10682 10688 10695 10699 10703 10708 10711 10715 10720 10723 10725 10731 10738 10748 10760 10768 10775 10783 10792 10799 10804 10808 10810 10812 10813 10811 10810 10813 10818 10823 10825 10827 10828 10830 10831 10834 10837 10838 10838 10840 10843 10845 10846 10846 10847 10847 10847 10848 10847 10846 10845 10844 10842 10840 10840 10841 10841 10839 10837 10835 10835 10834 10833
10673 10679 10688 10693 10696 10700 10703 10705 10710 10712 10714 10720 10726 10736 10749 10760 10766 10774 10782 10790 10795 10797 10798 10802 10804 10802 10803 10807 10811 10813 10814 10815 10817 10819 10822 10825 10828 10829 10830 10832 10835 10838 10838 10837 10838 10838 10838 10839 10839 10838 10838 10836 10835 10835 10836 10836 10835 10832 10830 10829 10829 10827 10826
10665 10671 10679 10685 10688 10692 10695 10697 10699 10701 10704 10708 10713 10725 10743 10755 10758 10763 10773 10780 10782 10784 10786 10790 10792 10794 10796 10800 10802 10803 10804 10804 10807 10811 10814 10818 10821 10822 10823 10826 10828 10829 10829 10829 10830 10829 10829 10830 10830 10830 10830 10829 10829 10830 10831 10830 10828 10825 10823 10822 10822 10821 10819
10657 10662 10670 10677 10681 10684 10687 10687 10688 10691 10695 10698 10706 10722 10739 10746 10747 10753 10761 10766 10769 10773 10775 10777 10781 10784 10787 10791 10794 10795 10794 10796 10800 10804 10808 10812 10816 10816 10817 10818 10821 10822 10822 10822 10822 10822 10821 10821 10821 10822 10823 10823 10823 10824 10824 10823 10821 10818 10816 10816 10815 10814 10812
10651 10655 10660 10667 10673 10678 10679 10677 10679 10683 10688 10694 10705 10719 10728 10733 10736 10741 10747 10753 10758 10762 10763 10765 10770 10775 10779 10784 10788 10788 10787 10791 10795 10798 10803 10807 10808 10808 10809 10811 10813 10815 10815 10816 10815 10814 10814 10813 10814 10816 10816 10815 10815 10816 10816 10815 10813 10811 10809 10809 10809 10807 10805
10644 10647 10651 10659 10669 10673 10671 10669 10673 10678 10683 10691 10701 10708 10714 10720 10725 10729 10735 10743 10747 10750 10753 10757 10762 10767 10772 10777 10781 10781 10782 10785 10789 10792 10796 10799 10800 10800 10802 10804 10806 10807 10808 10809 10808 10807 10807 10807 10808 10809 10808 10808 10808 10809 10808 10806 10805 10804 10802 10802 10802 10800 10799
10636 10641 10646 10654 10661 10662 10661 10663 10667 10672 10677 10684 10690 10695 10702 10710 10715 10720 10727 10732 10736 10741 10746 10749 10754 10761 10766 10771 10774 10774 10775 10778 10782 10785 10788 10790 10792 10794 10795 10797 10799 10800 10801 10802 10801 10800 10800 10801 10801 10802 10801 10800 10800 10800 10798 10797 10796 10796 10795 10794 10794 10793 10792
10629 10635 10640 10646 10650 10651 10653 10657 10662 10666 10672 10677 10680 10685 10693 10700 10707 10713 10718 10722 10727 10733 10738 10742 10749 10756 10761 10764 10766 10767 10769 10772 10775 10777 10780 10783 10785 10787 10788 10789 10791 10792 10793 10793 10793 10794 10795 10795 10795 10795 10793 10791 10790 10790 10789 10788 10788 10788 10788 10787 10787 10785 10784
10622 10628 10633 10637 10642 10645 10648 10651 10656 10662 10667 10670 10673 10678 10684 10691 10699 10705 10710 10715 10720 10725 10730 10735 10742 10748 10753 10755 10758 10760 10762 10765 10768 10771 10774 10776 10779 10780 10780 10781 10782 10783 10785 10786 10787 10788 10788 10788 10788 10787 10785 10783 10781 10780 10780 10781 10781 10780 10780 10779 10778 10777 10776
10616 10622 10627 10631 10636 10639 10641 10645 10651 10657 10661 10664 10667 10671 10677 10684 10691 10697 10703 10708 10712 10717 10722 10727 10733 10739 10744 10747 10749 10752 10755 10758 10760 10764 10767 10770 10771 10772 10772 10772 10774 10776 10777 10778 10779 10780 10780 10779 10779 10777 10776 10774 10773 10772 10773 10773 10773 10773 10772 10771 10770 10769 10768
10611 10617 10621 10626 10631 10634 10637 10642 10648 10652 10656 10659 10662 10666 10671 10677 10684 10690 10696 10701 10705 10709 10713 10719 10726 10732 10736 10739 10743 10746 10748 10751 10753 10756 10760 10763 10763 10763 10763 10764 10766 10768 10770 10769 10769 10770 10770 10771 10770 10768 10767 10766 10765 10765 10765 10765 10765 10764 10763 10763 10762 10761 10760
10605 10612 10617 10622 10627 10631 10634 10640 10647 10651 10653 10655 10658 10662 10667 10671 10677 10683 10689 10694 10698 10701 10705 10711 10718 10724 10728 10731 10735 10738 10740 10743 10746 10749 10752 10754 10754 10754 10755 10756 10757 10759 10760 10760 10760 10761 10762 10762 10762 10760 10759 10758 10756 10755 10755 10756 10756 10756 10755 10755 10754 10753 10752
10601 10608 10613 10617 10622 10626 10632 10640 10648 10651 10650 10650 10653 10657 10661 10665 10671 10677 10682 10687 10689 10693 10698 10704 10710 10715 10719 10722 10726 10730 10732 10734 10737 10741 10743 10745 10745 10746 10747 10748 10749 10750 10751 10751 10752 10753 10753 10753 10753 10751 10750 10748 10746 10745 10746 10748 10748 10748 10747 10747 10746 10744 10743
10596 10602 10607 10611 10617 10622 10629 10637 10645 10647 10647 10647 10649 10652 10655 10660 10665 10670 10676 10680 10682 10685 10691 10697 10702 10707 10711 10714 10718 10722 10724 10726 10729 10732 10734 10736 10738 10738 10739 10740 10741 10741 10742 10743 10744 10744 10744 10744 10743 10741 10740 10738 10737 10736 10738 10739 10740 10739 10739 10738 10737 10735 10734
10591 10596 10601 10606 10611 10618 10625 10631 10637 10641 10644 10645 10648 10650 10653 10656 10660 10664 10669 10674 10676 10679 10684 10689 10694 10698 10703 10706 10710 10713 10716 10718 10721 10723 10726 10728 10729 10730 10730 10731 10732 10732 10732 10733 10734 10734 10734 10733 10732 10731 10730 10729 10728 10729 10729 10730 10730 10730 10729 10729 10727 10726 10724
10587 10593 10597 10602 10607 10614 10620 10625 10630 10636 10641 10644 10646 10648 10651 10653 10657 10660 10664 10668 10672 10675 10678 10682 10687 10691 10695 10698 10702 10705 10708 10711 10713 10715 10717 10719 10720 10721 10721 10721 10722 10722 10722 10723 10724 10724 10724 10724 10723 10722 10721 10721 10721 10720 10720 10720 10720 10720 10719 10718 10717 10716 10715